Weather History for Laramie, WY

Change the Weather History Date:

Saturday, May 4, 2013

  Actual Average Record
Temperature  
Mean Temperature 42 °F 44 °F  
Max Temperature 50 °F 57 °F 78 °F (2000)
Min Temperature 34 °F 30 °F 18 °F (1979)
Degree Days  
Heating Degree Days 23 21  
Month to date heating degree days 136 87  
Since 1 July heating degree days 8076 8136  
Cooling Degree Days 0 0  
Month to date cooling degree days 0 0  
Year to date cooling degree days 0 0  
Moisture  
Dew Point 25 °F    
Average Humidity 51    
Maximum Humidity 70    
Minimum Humidity 31    
Precipitation  
Precipitation 0.00 in 0.05 in 0.54 in (1959)
Month to date precipitation 0.05 0.18  
Year to date precipitation 1.93 2.44  
Sea Level Pressure  
Sea Level Pressure 30.02 in    
Wind  
Wind Speed 13 mph (ESE)    
Max Wind Speed 23 mph    
Max Gust Speed 30 mph    
Visibility 10 miles    
Events      
T = Trace of Precipitation, MM = Missing Value Source: NWS Daily Summary

Daily Weather History Graph

Daily Weather History Graph

Search for Another Location

Airport:

Trip Planner

Search our weather history database for the weather conditions in past years. The results will help you decide how hot, cold, wet, or windy it might be!

Date:

Astronomy

May. 04, 2013 Rise Set
Actual Time 5:55 AM MDT 8:03 PM MDT
Civil Twilight 5:25 AM MDT 8:34 PM MDT
Nautical Twilight 4:48 AM MDT 9:11 PM MDT
Astronomical Twilight 4:07 AM MDT 9:52 PM MDT
Moon 2:59 AM MDT (5/4) 3:01 PM MDT (5/4)
Length of Visible Light 15h 08m
Length of Day
14h 07m
Waning Crescent, 26% of the Moon is Illuminated
May 4
Waning Crescent
May 9
New
May 17
First Quarter
May 24
Full
May 31
Last Quarter

Hourly Weather History & Observations

Time (MDT) Temp. Windchill Dew Point Humidity Pressure Visibility Wind Dir Wind Speed Gust Speed Precip Events Conditions
12:53 AM 39.0 °F 34.0 °F 23.0 °F 53% 29.98 in - SSE 6.9 mph - N/A   Overcast
1:53 AM 37.9 °F 31.5 °F 24.1 °F 57% 29.95 in - South 9.2 mph - N/A   Overcast
2:53 AM 36.0 °F 29.0 °F 25.0 °F 64% 29.96 in - SSW 9.2 mph - N/A   Overcast
3:53 AM 36.0 °F 29.0 °F 25.0 °F 64% 29.96 in - SSE 9.2 mph - N/A   Overcast
4:53 AM 36.0 °F 31.1 °F 26.1 °F 67% 29.95 in 10.0 mi South 5.8 mph - N/A   Overcast
5:53 AM 36.0 °F 29.0 °F 26.1 °F 67% 29.98 in - South 9.2 mph - N/A   Overcast
6:53 AM 37.0 °F 31.6 °F 28.9 °F 73% 30.00 in - ESE 6.9 mph - N/A   Overcast
7:53 AM 39.0 °F 36.8 °F 28.0 °F 65% 30.02 in - NE 3.5 mph - N/A   Overcast
8:53 AM 44.1 °F 42.5 °F 25.0 °F 47% 30.01 in 10.0 mi Variable 3.5 mph - N/A   Overcast
9:53 AM 48.0 °F - 19.9 °F 33% 29.99 in 10.0 mi East 13.8 mph - N/A   Overcast
10:53 AM 48.0 °F - 24.1 °F 39% 29.99 in 10.0 mi ENE 13.8 mph - N/A   Overcast
11:53 AM 48.9 °F - 23.0 °F 36% 30.01 in 10.0 mi ENE 19.6 mph 27.6 mph N/A   Partly Cloudy
12:53 PM 48.9 °F - 25.0 °F 39% 30.00 in 10.0 mi East 17.3 mph 24.2 mph N/A   Clear
1:53 PM 50.0 °F - 24.1 °F 36% 30.00 in 10.0 mi ESE 16.1 mph 26.5 mph N/A   Clear
2:53 PM 48.9 °F - 25.0 °F 39% 30.02 in 10.0 mi East 20.7 mph 26.5 mph N/A   Clear
3:53 PM 48.0 °F - 26.1 °F 42% 30.03 in 10.0 mi East 20.7 mph 25.3 mph N/A   Clear
4:53 PM 46.0 °F 38.8 °F 27.0 °F 47% 30.04 in 10.0 mi ESE 18.4 mph - N/A   Partly Cloudy
5:53 PM 44.1 °F 36.5 °F 26.1 °F 49% 30.06 in 10.0 mi East 17.3 mph 23.0 mph N/A   Clear
6:53 PM 42.1 °F 34.2 °F 25.0 °F 51% 30.07 in 10.0 mi East 16.1 mph 23.0 mph N/A   Clear
7:53 PM 39.9 °F 32.5 °F 25.0 °F 55% 30.08 in - East 12.7 mph - N/A   Clear
8:53 PM 37.9 °F 29.2 °F 24.1 °F 57% 30.08 in - East 15.0 mph 21.9 mph N/A   Clear
9:53 PM 37.9 °F 29.2 °F 23.0 °F 55% 30.08 in - ESE 15.0 mph - N/A   Clear
10:53 PM 37.0 °F 27.7 °F 23.0 °F 57% 30.08 in - ESE 16.1 mph 20.7 mph N/A   Partly Cloudy
11:53 PM 36.0 °F 27.5 °F 21.9 °F 57% 30.08 in - SE 12.7 mph - N/A   Scattered Clouds